Location: Kitt Peak
(31.9639°N, 111.5992°W)
Time: 14:56:37
(UTC-07:00)

OTV 5 (USA 277) - Visible Passes

Search period start: 20 August 2019 00:00
Search period end: 30 August 2019 00:00
Orbit: 305 x 329 km, 54.5° (Epoch: 20 August)

Date Brightness Start Highest point End Pass type
(mag) Time Alt. Az. Time Alt. Az. Time Alt. Az.
21 Aug ? 04:35:30 10° N 04:37:06 15° NE 04:38:42 10° ENE visible
22 Aug ? 04:49:14 10° NNW 04:51:46 45° NE 04:54:18 10° ESE visible
22 Aug ? 19:32:22 10° SSE 19:34:01 15° SE 19:35:38 10° E visible
22 Aug ? 21:06:06 10° W 21:07:04 16° WNW 21:07:04 16° WNW visible
23 Aug ? 05:03:49 10° WNW 05:06:15 37° SW 05:08:43 10° SSE visible
23 Aug ? 19:45:45 10° SSW 19:48:24 55° SE 19:51:02 10° NE visible
24 Aug ? 05:20:54 10° SW 05:20:54 10° SW 05:21:12 10° SW visible
24 Aug ? 20:00:26 10° WSW 20:02:56 33° NW 20:05:26 10° NNE visible
25 Aug ? 20:16:26 10° WNW 20:17:39 12° NW 20:18:51 10° NNW visible
